[[{"header":{"parameterUnit":"m.s-1","parameterCategory":1,"la1":30.2991,"la2":30.254,"lo1":-89.0895,"lo2":-89.0444,"dy":0.0017,"dx":0.0017,"nx":28,"ny":28,"refTime":"2024-12-07T03:00:00:Z","depth":0,"parameterNumber":2,"parameterNumberName":"U-component_of_WINDS"},"data":[0,0,0,0,0,0,0,0,0,0,0,0,0,0,0,0,0,0,0,0,0,0,0,0,0,0,0,0,0,0,0,0,0,0,0,0,0,0,0,0,0,0,0,0,0,0,0,0,0,0,0,0,0,0,0,0,0,0,-2.8764,-2.8764,0,-2.8837,-2.8838,-2.8838,-2.8854,-2.8853,-2.8853,-2.8852,-2.8926,-2.8929,-2.8931,0,0,0,0,0,0,0,0,0,0,0,0,0,-2.8637,-2.8639,-2.8764,-2.8764,-2.8765,-2.8837,-2.8838,-2.8839,-2.8854,-2.8853,-2.8853,-2.8852,-2.8926,-2.8929,-2.8932,0,0,0,0,0,0,0,0,0,0,0,0,0,-2.8699,-2.864,-2.8763,-2.8782,-2.8784,-2.8836,-2.8838,-2.8839,-2.8854,-2.8853,-2.8853,-2.8852,-2.8925,-2.8928,-2.8932,-2.8971,0,0,-2.8943,-2.8945,0,0,0,0,0,0,0,0,-2.8695,-2.8704,-2.8778,-2.8781,-2.8783,-2.8835,-2.882,-2.8883,-2.8854,-2.8828,-2.8852,-2.8851,-2.8897,-2.8903,-2.8918,-2.8974,-2.8978,-2.8944,-2.8946,-2.8947,-2.8949,0,0,0,0,0,0,0,-2.8691,-2.8701,-2.8792,-2.8779,-2.8782,-2.8786,-2.8794,-2.8832,-2.8866,-2.883,-2.8831,-2.884,-2.8898,-2.8915,-2.892,-2.8979,-2.8944,-2.8947,-2.8949,-2.8951,-2.9071,-2.9072,0,0,0,0,0,0,-2.8684,-2.8697,-2.879,-2.8795,-2.8736,-2.8789,-2.8798,-2.8819,-2.8865,-2.8872,-2.884,-2.884,-2.8909,-2.8916,-2.8923,-2.8971,-2.8947,-2.8951,-2.8953,-2.907,-2.9071,-2.9072,0,0,0,0,0,0,-2.8681,-2.8692,-2.8787,-2.8746,-2.8759,-2.8792,-2.8816,-2.8821,-2.8838,-2.8873,-2.8879,-2.8851,-2.8908,-2.8917,-2.8959,-2.8974,-2.8953,-2.8956,-2.9069,-2.907,-2.9071,-2.9068,0,0,0,0,0,0,-2.8677,-2.8691,-2.8706,-2.8746,-2.8761,-2.8822,-2.8817,-2.8823,-2.8844,-2.8845,-2.8885,-2.8891,-2.8908,-2.8953,-2.8963,-2.8978,-2.8959,-2.9067,-2.9069,-2.9071,-2.9066,-2.9069,-2.9071,0,0,0,0,0,-2.8673,-2.8702,-2.8707,-2.8718,-2.878,-2.8823,-2.8831,-2.8851,-2.8846,-2.8861,-2.8884,-2.889,-2.8971,-2.8957,-2.8968,-2.8985,-2.9066,-2.9069,-2.9071,-2.9066,-2.9068,-2.9071,0,0,0,0,0,0,-2.8662,-2.8707,-2.8713,-2.8757,-2.8786,-2.8826,-2.8845,-2.8853,-2.8884,-2.8884,-2.8907,-2.8916,-2.8955,-2.8975,-2.8959,-2.9025,-2.9018,-2.9023,-2.9011,-2.9014,-2.9016,-2.9009,-2.8962,0,0,0,0,0,-2.8664,-2.8695,-2.8734,-2.8768,-2.8783,-2.8812,-2.8831,-2.8844,-2.8875,-2.8887,-2.8913,-2.8943,-2.8975,-2.8996,-2.9028,-2.907,-2.9079,-2.9087,-2.9089,-2.9091,-2.9094,-2.9117,-2.9121,-2.9079,-2.9079,-2.9079,0,0,-2.867,-2.8699,-2.8717,-2.8767,-2.8791,-2.8822,-2.8822,-2.8855,-2.8878,-2.8892,-2.8932,-2.8953,-2.8988,-2.903,-2.9049,-2.9047,-2.9108,-2.9094,-2.9094,-2.9097,-2.912,-2.9124,-2.9127,-2.908,-2.908,-2.908,0,0,-2.8696,-2.8722,-2.8753,-2.8777,-2.8814,-2.8833,-2.8841,-2.888,-2.8894,-2.8935,-2.8946,-2.8974,-2.9029,-2.9054,-2.9073,-2.9109,-2.9116,-2.9119,-2.9129,-2.9152,-2.9155,-2.9158,-2.917,-2.9174,-2.9122,-2.9122,-2.9122,0,-2.8698,-2.8746,-2.8768,-2.88,-2.8822,-2.8837,-2.8868,-2.8891,-2.8936,-2.895,-2.8947,-2.9017,-2.9041,-2.9089,-2.9098,-2.9114,-2.9122,-2.9114,-2.9153,-2.9156,-2.9159,-2.9171,-2.9175,-2.9123,-2.9123,-2.9123,-2.9123,0,-2.8746,-2.8779,-2.88,-2.8843,-2.8867,-2.8899,-2.8926,-2.8947,-2.8959,-2.8978,-2.902,-2.905,-2.9088,-2.9101,-2.9112,-2.915,-2.9147,-2.9148,-2.9141,-2.9163,-2.9174,-2.9179,-2.9123,-2.9123,-2.9123,-2.9123,0,0,-2.8766,-2.8822,-2.8829,-2.8849,-2.8891,-2.8916,-2.8949,-2.8987,-2.9004,-2.9036,-2.9063,-2.911,-2.9111,-2.9134,-2.9148,-2.9168,-2.9194,-2.9167,-2.9168,-2.9169,-2.9236,-2.9234,-2.9239,-2.9199,-2.92,-2.9201,-2.9233,0,-2.8796,-2.8855,-2.8876,-2.8924,-2.8954,-2.8969,-2.8998,-2.9027,-2.9046,-2.9075,-2.9096,-2.9129,-2.9129,-2.9142,-2.9163,-2.9186,-2.9207,-2.9184,-2.9224,-2.9225,-2.9213,-2.9245,-2.9243,-2.9272,-2.9238,-2.9239,-2.9239,0,-2.8838,-2.887,-2.8921,-2.896,-2.8973,-2.8998,-2.9034,-2.9062,-2.9095,-2.9108,-2.9133,-2.9146,-2.9181,-2.9173,-2.9221,-2.9205,-2.9223,-2.9237,-2.9238,-2.9241,-2.9232,-2.9248,-2.9282,-2.9285,-2.9246,-2.9246,-2.9245,0,-2.8846,-2.8902,-2.8939,-2.8956,-2.9002,-2.9019,-2.9039,-2.9072,-2.9093,-2.9125,-2.9139,-2.9174,-2.9193,-2.922,-2.9242,-2.9235,-2.9288,-2.9282,-2.9299,-2.9298,-2.9308,-2.9306,-2.9344,-2.9322,-2.9322,-2.9322,-2.9321,0,-2.8876,-2.8906,-2.8943,-2.8966,-2.9001,-2.9025,-2.9059,-2.908,-2.9109,-2.9136,-2.9152,-2.9177,-2.9206,-2.9235,-2.9253,-2.9289,-2.9298,-2.9309,-2.9313,-2.9306,-2.9305,-2.9317,-2.9315,-2.9323,-2.9323,-2.9322,-2.9322,0,-2.889,-2.8915,-2.8957,-2.8998,-2.9009,-2.9032,-2.9067,-2.909,-2.9111,-2.9145,-2.9154,-2.9187,-2.9222,-2.9247,-2.9292,-2.9304,-2.9343,-2.9348,-2.9332,-2.9333,-2.9348,-2.9346,-2.9393,-2.94,-2.9374,-2.9375,-2.9375,0,-2.8906,-2.893,-2.8973,-2.8993,-2.9013,-2.9044,-2.9066,-2.9091,-2.9113,-2.9153,-2.9171,-2.9207,-2.9237,-2.9293,-2.932,-2.9355,-2.936,-2.9374,-2.9365,-2.9358,-2.9358,-2.9356,-2.9358,-2.9374,-2.9375,-2.9375,-2.9375,0,-2.8933,-2.8945,-2.8976,-2.9011,-2.9037,-2.9066,-2.9095,-2.911,-2.9141,-2.9165,-2.9201,-2.9224,-2.9271,-2.9306,-2.9344,-2.9364,-2.9374,-2.9378,-2.9383,-2.9376,-2.9365,-2.937,-2.9334,-2.9376,-2.9376,-2.9376,-2.9376,-2.9376,-2.8948,-2.897,-2.9003,-2.9037,-2.9062,-2.9089,-2.9113,-2.9137,-2.9167,-2.9207,-2.922,-2.9257,-2.929,-2.9342,-2.9363,-2.9392,-2.9392,-2.94,-2.9402,-2.9403,-2.9402,-2.9362,-2.9399,-2.9399,-2.9399,-2.9399,-2.9399,0,-2.8974,-2.8997,-2.9028,-2.9069,-2.9095,-2.9104,-2.9137,-2.9158,-2.9191,-2.9221,-2.925,-2.9292,-2.9326,-2.9357,-2.9393,-2.9411,-2.9416,-2.9419,-2.9417,-2.9422,-2.9401,-2.9392,-2.9414,-2.9414,-2.9414,-2.9414,-2.9414,-2.9414,-2.8991,-2.9028,-2.9044,-2.9093,-2.9116,-2.9152,-2.917,-2.9196,-2.922,-2.9265,-2.9294,-2.9314,-2.9345,-2.9383,-2.9415,-2.9423,-2.9435,-2.9437,-2.9446,-2.9425,-2.9423,-2.9422,-2.9413,-2.944,-2.944,-2.9465,-2.9465,-2.9465]},{"header":{"parameterUnit":"m.s-1","parameterCategory":1,"la1":30.2991,"la2":30.254,"lo1":-89.0895,"lo2":-89.0444,"dy":0.0017,"dx":0.0017,"nx":28,"ny":28,"refTime":"2024-12-07T03:00:00:Z","depth":0,"parameterNumber":3,"parameterNumberName":"V-component_of_WINDS"},"data":[0,0,0,0,0,0,0,0,0,0,0,0,0,0,0,0,0,0,0,0,0,0,0,0,0,0,0,0,0,0,0,0,0,0,0,0,0,0,0,0,0,0,0,0,0,0,0,0,0,0,0,0,0,0,0,0,0,0,3.1025,3.1026,0,3.1079,3.1079,3.108,3.1113,3.1113,3.1113,3.1113,3.1164,3.1166,3.1167,0,0,0,0,0,0,0,0,0,0,0,0,0,3.0951,3.0952,3.1025,3.1026,3.1027,3.1079,3.1079,3.108,3.1113,3.1113,3.1113,3.1114,3.1164,3.1165,3.1167,0,0,0,0,0,0,0,0,0,0,0,0,0,3.0992,3.0953,3.1025,3.1049,3.1052,3.1078,3.1079,3.108,3.1113,3.1113,3.1113,3.1114,3.1164,3.1165,3.1167,3.1172,0,0,3.1173,3.1173,0,0,0,0,0,0,0,0,3.0989,3.0994,3.1045,3.1048,3.1051,3.1089,3.1072,3.1111,3.1113,3.109,3.1113,3.1114,3.1139,3.1143,3.1152,3.1175,3.1177,3.1173,3.1174,3.1175,3.1175,0,0,0,0,0,0,0,3.0986,3.0992,3.1046,3.1046,3.1049,3.1057,3.1063,3.1079,3.1112,3.1092,3.1094,3.11,3.1141,3.115,3.1154,3.1178,3.1173,3.1174,3.1175,3.1176,3.1211,3.1211,0,0,0,0,0,0,3.098,3.099,3.1044,3.1048,3.102,3.1058,3.1065,3.1077,3.1112,3.1118,3.11,3.1102,3.1147,3.1151,3.1155,3.1167,3.1174,3.1176,3.1177,3.1211,3.1211,3.1211,0,0,0,0,0,0,3.0978,3.0985,3.1042,3.102,3.1028,3.1059,3.1072,3.1078,3.1087,3.1118,3.1124,3.1104,3.1148,3.1153,3.1169,3.1169,3.1177,3.1179,3.1212,3.1211,3.1211,3.1187,0,0,0,0,0,0,3.0976,3.0984,3.0986,3.1019,3.1029,3.1055,3.1072,3.1078,3.1091,3.1093,3.1124,3.1129,3.1148,3.1166,3.1171,3.1171,3.118,3.1212,3.1212,3.1211,3.1188,3.1186,3.1185,0,0,0,0,0,3.0973,3.0975,3.0986,3.0992,3.1032,3.1055,3.106,3.1084,3.1091,3.1093,3.1114,3.1128,3.1168,3.1168,3.1173,3.1174,3.1212,3.1212,3.1211,3.1189,3.1187,3.1185,0,0,0,0,0,0,3.0939,3.098,3.0992,3.1005,3.1027,3.1061,3.1065,3.108,3.1099,3.11,3.1127,3.1134,3.1148,3.1162,3.1161,3.1183,3.1192,3.1193,3.1173,3.1171,3.1169,3.1166,3.1181,0,0,0,0,0,3.0933,3.0949,3.0984,3.0992,3.1003,3.1032,3.1042,3.1059,3.1082,3.1091,3.1112,3.1133,3.1151,3.1161,3.1179,3.1191,3.1199,3.1194,3.1192,3.1191,3.1191,3.1201,3.1201,3.121,3.121,3.121,0,0,3.0921,3.0946,3.0953,3.0986,3.1005,3.1021,3.1039,3.1054,3.1067,3.1092,3.111,3.1127,3.1152,3.1167,3.1174,3.1179,3.1191,3.1191,3.1189,3.119,3.1201,3.12,3.1199,3.121,3.121,3.121,0,0,3.0907,3.0927,3.0938,3.0957,3.0986,3.1006,3.1008,3.1041,3.1054,3.1072,3.1093,3.1108,3.1137,3.1155,3.1168,3.1166,3.118,3.117,3.1161,3.1171,3.117,3.1169,3.117,3.117,3.1171,3.1171,3.1171,0,3.0888,3.0914,3.094,3.0956,3.0971,3.0998,3.1009,3.1026,3.1058,3.1068,3.1074,3.1114,3.1132,3.1153,3.1153,3.1162,3.1167,3.1167,3.1168,3.1168,3.1168,3.1169,3.1169,3.1169,3.117,3.117,3.117,0,3.089,3.0908,3.0913,3.0947,3.0962,3.0975,3.1004,3.1016,3.1032,3.1052,3.1072,3.1096,3.1121,3.1127,3.1141,3.115,3.1153,3.1163,3.1172,3.1165,3.1167,3.1167,3.1168,3.1168,3.1169,3.1169,0,0,3.0854,3.0905,3.0907,3.0924,3.096,3.0974,3.0989,3.1015,3.1026,3.1048,3.1063,3.1089,3.1099,3.1114,3.1131,3.114,3.1139,3.1149,3.115,3.1148,3.1153,3.1147,3.1147,3.1149,3.1149,3.1149,3.1152,0,3.0847,3.0877,3.0904,3.0924,3.0942,3.097,3.0984,3.1007,3.1026,3.1044,3.1065,3.1085,3.1096,3.1106,3.1115,3.1137,3.1141,3.1137,3.1163,3.1164,3.1157,3.1147,3.1139,3.1141,3.1153,3.1153,3.1153,0,3.0842,3.0866,3.0889,3.0927,3.0935,3.0947,3.0975,3.0992,3.1019,3.1033,3.1052,3.1071,3.1089,3.1097,3.1123,3.1121,3.1133,3.1146,3.1146,3.115,3.1158,3.1152,3.1141,3.1142,3.1154,3.1154,3.1154,0,3.0816,3.0854,3.0874,3.0888,3.0931,3.0939,3.0957,3.0986,3.1001,3.1025,3.1035,3.106,3.1074,3.1093,3.1119,3.1122,3.1143,3.1153,3.1156,3.1155,3.1159,3.1159,3.1151,3.1165,3.1165,3.1165,3.1165,0,3.0806,3.082,3.0864,3.0876,3.0893,3.0923,3.0939,3.0959,3.0985,3.1002,3.1026,3.1041,3.1074,3.1093,3.1113,3.1133,3.1139,3.1151,3.1156,3.1149,3.1148,3.1158,3.1159,3.1165,3.1165,3.1165,3.1165,0,3.078,3.081,3.0834,3.0874,3.0885,3.0895,3.093,3.0943,3.0965,3.0986,3.0993,3.1027,3.1052,3.1079,3.1112,3.1125,3.1145,3.1152,3.1136,3.1139,3.1141,3.1141,3.1141,3.1143,3.1154,3.1154,3.1154,0,3.0772,3.0784,3.0826,3.0841,3.0859,3.0881,3.0897,3.0928,3.0945,3.098,3.0989,3.1016,3.1039,3.1076,3.1104,3.113,3.1138,3.1137,3.1142,3.1136,3.114,3.114,3.1142,3.1135,3.1134,3.1134,3.1134,0,3.0756,3.0771,3.0794,3.0824,3.0844,3.0868,3.0894,3.0904,3.094,3.0957,3.0984,3.1002,3.1037,3.1064,3.1094,3.1112,3.113,3.1132,3.1135,3.1128,3.1119,3.1126,3.1133,3.1132,3.1132,3.1132,3.1133,3.1133,3.0739,3.0752,3.0786,3.0812,3.0835,3.0859,3.0875,3.09,3.0923,3.0956,3.0972,3.0999,3.1029,3.1072,3.109,3.1112,3.1117,3.112,3.1121,3.1121,3.112,3.1116,3.1117,3.1117,3.1117,3.1117,3.1117,0,3.0726,3.075,3.0774,3.081,3.0831,3.0848,3.0877,3.0894,3.0918,3.0945,3.0969,3.1,3.1027,3.1058,3.1087,3.1098,3.1107,3.1105,3.1105,3.1109,3.1113,3.1109,3.1098,3.1098,3.1098,3.1098,3.1098,3.1098,3.0721,3.0745,3.0765,3.0801,3.0824,3.0852,3.0868,3.0891,3.0913,3.0948,3.0972,3.0992,3.1022,3.1053,3.1079,3.1088,3.1098,3.1093,3.1104,3.1107,3.1108,3.111,3.1106,3.1095,3.1095,3.1099,3.1099,3.1099]}]]